Wind_Speed
29 30 32 32 32 32 32 33 34 34 35 36 36 35 33 33 33 34 35 36 34 32 30 28 28 28 28 28 28 29 31 33 35 37 38 39 40 40 41 41 41 41 41 41 40 40 39 37 37 36 35 34 34 34 35 36 37 37 38 38 38 40 41 43 47 50 48 43 42 46 49 50 50 49 50 50 50 50 51 52 53 54 55 56 56
31 30 32 34 34 33 33 35 36 36 37 38 37 36 35 35 35 36 37 38 38 35 32 31 31 31 31 30 30 31 31 33 35 36 37 39 40 40 41 41 41 42 41 41 41 41 40 38 38 37 36 35 35 36 36 36 36 37 37 38 39 39 41 43 46 48 49 46 42 43 48 52 51 50 51 53 53 54 54 54 55 55 56 58 59
34 33 34 36 37 36 38 39 38 38 39 39 39 37 37 37 37 38 39 40 41 39 36 34 34 34 34 33 33 32 32 33 34 35 36 38 40 41 42 42 42 42 42 42 42 41 40 39 38 38 38 38 37 37 36 35 36 37 37 38 39 40 41 43 45 47 49 48 46 45 49 53 53 52 52 54 55 56 56 55 57 58 59 61 63
38 38 38 39 39 39 40 41 41 41 40 40 41 40 39 38 38 39 39 41 43 43 41 37 36 37 37 36 35 33 32 33 34 35 37 38 40 41 42 43 43 43 42 42 42 41 41 40 40 40 40 40 39 38 37 36 36 38 38 39 40 41 42 44 45 47 50 50 49 48 50 54 56 55 55 55 56 57 58 58 59 60 61 63 64
41 43 43 42 41 40 40 41 42 43 41 40 42 42 41 40 39 40 41 43 45 46 45 42 39 39 40 39 38 35 34 34 35 37 38 39 41 42 43 43 44 43 43 42 42 42 42 42 42 42 42 41 39 38 37 38 38 39 40 41 42 43 43 44 46 48 51 52 52 52 52 54 57 56 56 57 58 58 59 60 61 62 62 63 64
44 46 46 45 45 44 43 43 43 44 44 42 42 44 44 43 42 43 44 45 46 47 48 46 42 41 42 42 41 38 37 36 37 39 40 41 41 42 43 44 44 44 44 43 43 43 43 43 43 43 43 41 40 39 39 40 41 41 42 43 44 44 45 45 47 50 52 53 53 54 54 55 56 55 55 58 61 62 62 61 62 64 64 63 64
46 47 47 48 48 48 47 46 44 45 46 45 44 44 46 45 46 47 47 48 48 48 49 48 45 43 43 44 44 41 39 39 40 41 41 41 42 42 43 44 45 46 45 44 44 43 43 43 44 43 42 42 41 42 42 42 42 42 43 44 45 46 47 47 49 51 52 53 54 55 55 55 55 55 56 58 61 63 64 64 63 64 66 66 65
45 47 48 50 50 50 49 48 45 45 47 48 46 45 46 48 49 49 48 47 47 47 47 47 47 46 45 44 44 42 41 42 43 43 42 42 42 43 44 45 46 46 46 45 44 44 44 43 43 43 43 43 44 44 44 43 43 43 43 44 46 47 48 49 50 52 53 54 54 56 57 55 55 57 59 60 62 63 64 67 67 67 68 68 66
43 46 49 51 51 50 48 46 43 44 47 49 48 47 48 49 50 49 46 45 45 46 46 46 47 47 45 44 43 43 43 43 43 42 42 42 44 45 45 46 46 47 47 46 45 45 44 44 44 44 45 45 45 45 44 43 44 44 44 45 46 47 48 50 52 53 53 54 56 57 58 57 57 59 61 61 63 65 66 68 70 70 70 71 68
44 46 49 51 50 47 44 42 42 42 44 47 48 50 50 50 49 46 44 43 43 45 45 46 46 45 44 44 43 43 44 43 43 42 43 44 45 46 46 46 47 47 47 47 47 46 45 45 45 45 46 46 46 45 44 43 44 44 45 46 46 48 50 51 52 53 55 56 58 59 61 61 60 62 63 63 63 66 68 69 70 71 72 73 71
43 45 47 47 46 44 42 41 42 42 43 44 47 49 49 48 46 43 42 41 42 42 43 44 44 44 43 43 43 44 44 43 43 44 44 45 45 46 47 47 48 49 49 49 49 48 47 47 47 47 47 47 46 45 44 43 43 44 45 46 48 50 52 52 53 55 57 59 60 61 62 63 62 63 64 64 65 66 68 68 68 70 69 71 73
43 45 46 46 46 44 42 41 42 43 43 44 45 46 45 44 43 41 40 39 39 40 41 41 42 41 41 42 42 43 43 43 44 44 43 44 45 45 46 47 48 49 50 50 50 49 48 48 48 48 47 47 46 45 44 43 43 44 44 46 48 51 51 52 54 56 58 59 60 60 61 62 63 62 61 62 64 65 65 64 63 65 65 67 70
43 46 48 49 48 47 46 44 44 44 44 43 43 43 43 41 40 38 37 37 37 38 39 39 39 39 40 41 41 41 42 42 42 41 41 42 43 45 46 47 48 49 50 50 49 49 49 49 48 48 47 47 46 45 44 42 42 43 44 46 48 49 50 51 53 56 57 58 59 59 59 59 61 60 57 57 60 61 62 63 61 63 64 65 67
45 48 51 51 51 50 49 47 45 45 45 43 42 42 41 39 38 37 36 36 37 38 39 39 40 39 39 39 39 40 40 40 40 39 40 41 42 44 46 47 48 49 49 49 49 49 48 48 48 47 46 46 44 43 42 42 42 43 45 47 48 48 49 51 53 54 55 55 56 57 56 57 58 58 56 55 58 59 61 62 63 64 66 66 66
47 48 49 48 48 48 48 48 47 47 45 42 41 40 38 37 36 35 35 36 38 39 40 40 40 39 38 38 38 38 38 38 38 38 39 40 42 44 46 47 48 48 48 49 49 48 48 47 47 46 45 44 42 41 41 41 42 44 45 47 47 47 50 52 52 53 53 53 55 56 56 56 57 57 56 55 57 58 59 62 63 65 67 67 66
44 45 44 43 43 44 45 46 46 45 42 40 40 38 35 34 34 33 34 35 37 40 41 40 39 37 36 36 36 37 37 37 38 38 39 40 41 43 45 46 47 48 49 49 48 47 47 46 46 45 43 41 40 40 41 41 43 45 46 46 47 48 50 51 51 51 52 52 53 54 54 55 54 54 53 53 54 57 59 61 62 63 67 69 68
40 40 40 40 40 42 42 42 42 42 40 39 38 36 34 34 34 32 32 33 35 38 39 39 37 36 36 36 36 35 35 36 37 38 40 41 41 42 44 46 47 48 49 49 47 46 46 45 44 43 41 40 39 39 40 42 44 45 46 46 48 49 50 50 50 49 49 50 50 50 51 52 52 52 52 51 53 56 60 63 62 62 66 69 68
38 38 38 38 39 40 40 39 39 39 39 38 36 35 34 34 33 32 33 34 35 37 37 37 37 36 36 35 34 33 34 35 37 38 40 41 41 42 44 46 48 48 48 47 45 44 44 43 42 41 40 39 38 38 40 43 44 45 45 46 48 49 49 49 49 48 48 48 48 49 50 51 52 53 52 52 53 55 59 63 63 63 66 67 66
39 40 40 40 40 40 39 38 38 39 37 36 35 34 34 33 33 34 34 35 36 37 37 37 37 36 35 34 32 32 34 35 37 39 40 41 42 43 45 47 48 48 46 45 44 43 42 41 39 39 39 38 37 38 40 42 43 44 45 47 48 49 49 48 48 48 49 50 50 50 51 51 53 54 54 54 54 56 59 61 61 61 63 64 64
40 41 41 40 41 42 40 39 39 39 38 37 36 36 36 35 35 35 35 35 36 36 36 36 36 35 34 32 32 32 34 36 37 38 40 41 42 45 47 48 47 46 45 44 43 42 40 38 38 38 38 37 37 39 40 42 42 43 45 47 48 49 49 48 47 48 50 51 52 52 52 53 54 55 55 55 56 57 58 59 59 58 59 60 59
40 40 40 40 42 43 43 42 42 42 41 40 39 38 36 36 36 37 38 38 37 37 37 36 35 34 34 33 32 33 35 37 37 38 40 41 43 46 48 47 46 45 44 43 42 41 38 37 37 37 37 37 38 39 40 40 41 43 44 46 48 48 48 48 48 48 50 51 52 53 53 53 54 55 55 55 56 57 58 59 59 57 57 57 56
36 37 38 39 41 43 44 44 44 45 46 45 43 41 39 37 37 38 39 40 40 39 38 36 35 35 35 35 34 35 36 37 37 38 40 41 44 46 47 47 45 44 44 43 41 39 37 36 36 36 36 37 39 39 39 39 41 42 44 46 47 47 48 48 48 49 50 51 53 53 53 54 55 55 55 55 56 57 58 58 58 57 56 56 56
31 32 33 34 36 39 42 44 44 45 46 46 46 45 43 41 40 39 39 40 41 40 39 38 37 37 37 37 36 36 36 37 37 39 40 41 44 46 46 46 45 44 43 42 39 37 36 36 36 35 35 37 39 38 38 39 41 42 43 45 46 46 47 47 48 49 50 51 53 54 53 54 55 56 56 56 56 57 58 58 58 57 57 56 56
29 30 30 31 32 34 36 39 41 42 44 45 45 46 46 45 45 44 43 41 42 42 41 40 39 39 38 38 37 36 36 37 38 40 41 42 44 46 46 45 44 43 43 41 38 37 37 36 35 34 36 37 37 37 38 39 40 41 43 44 45 46 46 47 48 50 51 52 52 53 54 54 55 56 56 56 56 56 57 58 58 58 58 58 57
30 29 29 30 31 32 33 36 38 40 42 43 44 45 46 47 47 47 46 44 43 41 40 40 39 39 39 39 38 37 37 38 39 41 42 44 46 46 45 44 44 43 42 40 38 37 37 36 35 34 35 36 36 36 38 39 40 42 43 44 45 45 46 47 48 49 51 52 52 53 54 54 55 55 55 56 56 56 57 57 58 57 58 59 58
33 31 31 32 32 32 33 34 37 39 40 42 43 43 44 44 45 46 46 46 44 42 41 40 40 40 40 39 38 38 38 38 40 42 43 45 46 47 46 44 44 43 42 40 38 37 37 35 34 35 35 34 35 36 38 39 40 41 43 43 44 45 45 47 48 49 50 51 52 53 54 54 55 54 55 56 56 56 56 57 58 58 58 60 60
39 37 36 36 36 36 37 36 37 38 39 40 42 42 41 41 41 43 45 45 45 44 43 42 41 40 39 40 41 40 39 39 41 43 44 46 47 47 46 44 43 43 41 39 38 37 36 35 34 34 34 33 34 36 37 39 39 41 42 42 43 44 45 46 47 49 50 51 52 53 53 53 54 54 54 55 55 55 56 57 58 58 59 61 62
47 47 45 43 41 41 42 42 43 42 41 41 41 42 42 41 41 40 40 40 39 38 38 38 37 36 37 40 43 44 42 42 43 44 45 46 47 46 45 44 43 42 41 38 37 36 35 34 34 33 32 33 34 36 37 38 38 39 40 41 42 43 44 45 46 47 48 49 50 51 51 52 52 53 53 54 55 55 55 56 58 59 60 61 62
51 52 52 51 49 47 47 47 48 48 48 47 46 45 45 46 46 46 45 43 41 39 38 37 37 36 37 40 42 45 45 44 43 44 46 46 46 46 44 43 43 42 40 38 36 35 34 33 32 31 32 33 35 36 36 36 37 38 39 40 41 42 43 44 45 45 46 47 48 50 50 51 51 52 53 54 54 54 55 56 57 59 59 60 60
52 52 53 54 54 54 53 52 52 52 52 52 52 52 52 51 51 51 51 51 51 50 50 50 49 47 45 43 43 45 45 42 42 45 47 47 47 46 45 44 44 42 40 37 35 34 33 32 31 31 32 34 34 34 34 33 35 36 38 39 40 41 42 43 43 44 44 45 47 48 49 50 50 51 53 54 54 54 55 56 57 57 57 58 59
51 51 52 52 53 54 55 56 56 56 56 56 56 56 57 57 56 55 54 53 53 54 57 58 57 54 50 48 47 47 45 43 45 47 48 49 49 47 45 44 43 41 38 36 35 33 31 30 30 32 32 32 32 31 31 32 34 36 37 38 39 40 41 42 42 43 43 44 45 46 47 49 50 51 53 54 54 55 55 55 56 55 56 56 57
49 50 50 50 50 51 53 54 56 56 57 57 56 55 56 56 56 56 55 53 52 53 54 55 55 53 51 50 50 49 47 46 47 49 52 53 50 47 45 44 42 39 37 35 33 31 30 30 31 31 31 30 30 30 30 32 34 36 38 39 39 40 41 41 41 42 42 43 44 45 46 48 49 51 52 53 54 55 56 55 55 55 56 56 55
49 49 49 50 50 50 50 52 53 53 53 52 52 51 51 51 50 50 50 50 50 50 51 51 51 51 51 51 51 51 49 48 49 52 54 53 49 46 45 44 41 38 36 34 32 30 29 29 30 30 29 29 28 28 29 32 34 36 38 39 39 40 40 40 41 41 41 42 43 45 46 48 49 51 52 53 54 55 56 55 55 55 57 57 57
49 49 49 50 50 51 50 50 50 50 50 48 47 46 45 45 46 46 47 48 48 49 49 50 51 52 52 52 50 50 50 51 53 53 53 50 47 46 45 42 39 36 34 32 30 28 28 29 28 28 28 27 26 27 29 31 34 36 37 38 39 40 39 39 40 40 40 41 42 44 46 47 49 51 53 53 53 54 55 54 55 57 58 58 58
48 49 49 49 50 50 50 50 49 49 48 47 46 44 43 43 43 43 44 45 46 46 48 49 51 53 54 53 51 52 53 55 55 52 48 46 46 45 43 40 37 35 33 30 28 28 28 27 27 26 26 25 25 26 28 31 33 35 37 38 38 39 39 39 39 39 39 40 42 44 45 47 49 51 53 53 54 54 54 54 56 58 59 59 59
47 47 47 47 48 48 48 47 47 47 47 47 45 44 43 43 42 42 42 43 43 45 47 48 48 51 54 54 54 55 56 56 53 48 45 44 45 42 40 38 36 33 30 28 27 27 26 26 25 25 24 23 24 26 28 31 33 35 36 37 38 38 38 39 39 39 40 40 42 44 45 47 49 51 52 53 54 54 54 55 57 58 59 60 60
47 46 45 45 45 45 45 45 45 45 46 46 45 45 44 43 42 42 42 43 43 43 45 46 47 49 52 55 57 58 57 55 51 46 44 45 44 40 37 35 33 30 28 27 26 26 25 24 23 23 22 22 24 26 28 30 33 34 35 36 37 38 38 39 39 40 40 40 42 44 45 47 49 51 52 53 54 54 55 56 58 59 60 60 59
47 46 45 44 43 43 42 42 42 43 44 44 44 45 44 43 43 43 44 44 43 42 42 45 46 47 50 54 58 59 58 54 49 45 45 45 42 38 35 32 30 28 26 26 25 24 23 22 21 20 20 21 23 25 28 30 32 33 35 35 36 37 38 38 39 39 40 40 42 44 46 47 49 51 52 53 53 54 56 57 59 61 61 61 59
47 46 45 45 43 42 40 39 39 40 42 43 43 44 44 43 44 45 45 45 44 43 42 44 47 48 50 53 56 56 54 49 45 43 43 43 39 35 32 30 28 26 25 25 24 22 21 20 19 19 19 21 23 25 28 30 31 33 34 35 35 36 37 38 39 39 40 41 42 43 45 47 48 50 52 52 54 55 56 58 60 61 62 62 61
46 46 46 45 43 40 38 37 36 36 37 38 39 41 43 43 44 45 46 46 45 44 44 45 47 48 48 51 51 48 44 42 42 43 42 39 35 32 30 28 27 26 25 24 22 21 19 18 18 18 19 21 23 25 28 29 30 32 33 34 35 36 37 38 39 40 41 41 42 43 45 46 48 50 52 53 54 55 57 59 60 61 62 62 62
45 45 45 45 43 41 38 37 35 34 34 36 38 40 42 43 44 44 45 45 45 45 46 46 45 44 44 44 42 38 37 39 43 43 40 36 33 31 29 27 26 25 24 22 20 18 17 16 17 17 19 21 23 25 27 28 30 31 32 33 35 36 36 38 39 40 41 42 42 43 44 46 48 50 52 54 55 57 58 59 59 60 61 61 61
43 44 44 44 43 42 40 38 37 37 37 38 39 39 40 41 42 43 43 44 45 45 44 41 39 38 39 38 36 35 37 40 41 39 37 34 32 30 28 27 26 24 22 20 18 16 15 16 16 17 19 21 23 25 27 28 29 30 32 33 34 35 36 38 38 40 41 42 43 43 44 45 47 49 51 53 56 58 59 60 60 60 61 61 61
42 42 42 42 42 41 41 40 40 40 39 39 38 38 38 39 40 41 43 43 42 39 35 32 33 35 37 37 37 38 40 41 40 38 35 33 31 29 28 26 24 23 20 18 16 15 15 15 16 17 19 21 23 24 26 27 29 30 31 32 34 35 36 37 38 39 41 42 43 44 44 45 46 48 50 53 56 58 60 60 60 60 61 61 61
40 40 39 38 38 39 40 40 41 41 40 39 37 38 38 39 40 41 40 38 34 30 28 29 31 34 35 37 40 42 42 40 39 37 34 31 29 28 26 25 23 21 19 16 15 14 15 15 16 18 19 21 23 24 26 27 29 30 31 32 33 35 36 38 39 40 41 42 43 44 45 46 46 48 50 53 55 58 60 61 61 61 60 61 61
38 36 36 36 36 37 38 40 41 41 40 39 38 38 39 39 39 38 36 33 29 28 28 30 32 33 35 38 41 42 40 39 37 34 31 29 28 26 25 23 22 19 17 15 14 14 15 15 16 18 20 21 22 24 26 27 29 30 32 33 34 35 37 38 39 40 41 42 44 45 46 46 47 48 50 52 54 57 59 61 61 61 61 61 62
30 30 30 32 33 34 36 37 38 38 37 37 38 38 37 36 36 34 32 30 29 29 31 32 33 35 37 39 40 40 38 37 34 31 29 28 26 25 24 22 20 17 15 14 14 14 14 15 17 18 19 21 22 24 25 27 28 30 31 32 34 35 37 38 39 40 41 42 43 45 46 46 47 48 49 51 53 55 58 60 61 61 60 61 61
24 24 25 26 27 29 30 31 33 34 34 36 37 37 35 33 32 31 30 30 31 32 32 33 34 36 38 39 38 37 35 33 30 29 28 26 25 24 23 21 18 16 15 15 15 15 15 16 17 18 19 20 22 24 25 26 28 29 30 32 33 35 36 38 39 40 40 41 42 43 45 46 47 48 49 50 52 54 57 59 60 60 60 60 60
23 23 24 25 26 27 28 29 31 33 34 35 36 34 31 29 29 30 31 33 33 33 33 34 36 37 37 36 35 34 32 30 29 27 26 24 23 23 21 19 16 16 15 15 15 15 16 17 18 19 20 21 22 23 25 26 27 29 30 31 32 34 36 37 38 39 40 40 41 42 44 45 46 48 48 50 51 53 55 57 59 60 59 59 59
26 26 26 27 28 29 30 30 31 32 32 31 29 27 27 29 31 33 34 34 33 33 34 35 36 36 35 34 33 32 30 28 27 26 24 23 23 21 19 17 16 16 16 15 16 16 17 18 19 20 21 22 23 24 25 26 28 29 30 31 32 33 35 36 37 38 39 40 40 41 42 44 45 47 48 49 50 52 54 56 57 59 59 59 59
26 27 27 28 28 29 29 28 26 25 24 24 26 29 33 34 34 33 32 32 32 33 34 34 33 33 32 31 30 28 27 26 25 24 23 22 21 19 17 16 16 16 16 16 16 17 18 19 20 21 22 23 23 24 26 27 29 30 31 32 33 33 34 36 37 38 39 39 40 40 41 43 44 45 47 48 49 50 52 54 55 57 58 58 59
23 23 24 24 23 22 21 21 22 26 30 33 35 35 34 33 31 30 30 30 31 31 32 31 31 30 29 29 28 27 26 25 24 23 22 20 19 18 17 16 16 16 16 16 17 18 19 20 21 22 23 23 24 25 26 28 29 31 32 33 34 34 34 35 36 37 38 38 39 39 40 42 43 44 46 47 48 49 51 52 53 55 57 57 58
Wind_Direction
263 261 259 258 259 259 261 263 264 265 265 266 268 271 274 276 277 277 274 273 272 274 275 276 277 278 278 278 277 279 282 285 285 285 285 286 287 287 288 287 287 286 285 284 283 282 281 281 280 279 278 277 276 277 279 282 284 286 289 290 291 292 292 291 290 286 285 289 294 296 300 302 301 303 303 302 302 302 300 300 302 302 302 300 297
263 262 256 253 255 258 260 262 262 264 265 264 266 269 273 275 277 277 274 272 271 270 272 273 274 274 275 275 275 274 277 281 283 284 285 285 285 286 286 286 285 285 284 284 283 281 280 280 279 278 277 275 275 277 280 284 286 287 290 291 292 293 294 293 293 291 287 287 293 296 298 300 301 303 304 303 303 302 301 303 305 304 302 301 299
265 263 255 250 251 254 256 258 260 261 263 264 265 267 270 272 273 274 272 270 269 267 269 271 271 271 272 273 272 272 273 277 280 282 284 284 283 283 283 283 283 283 283 283 282 281 280 279 277 276 276 275 276 279 282 284 286 288 290 292 293 294 294 294 294 295 292 289 294 299 298 300 303 304 304 304 304 303 302 304 305 304 303 303 302
265 263 259 254 251 251 253 255 256 259 261 263 263 263 266 268 269 271 270 268 267 266 266 267 269 269 270 270 271 271 272 274 276 279 281 282 282 282 281 281 281 282 282 282 282 280 279 278 277 276 276 276 277 279 281 284 286 289 290 292 292 292 293 294 295 298 297 295 297 302 302 303 305 305 306 306 305 304 305 305 305 304 304 305 304
263 264 262 258 253 253 256 257 255 256 258 260 260 261 262 264 265 267 268 266 264 263 263 264 266 268 268 269 270 270 270 271 273 275 277 280 281 281 281 280 280 281 282 282 281 279 278 277 276 277 277 276 277 279 282 284 286 287 289 289 291 291 292 295 297 299 300 300 301 303 304 303 303 304 308 308 306 306 306 306 306 304 303 303 303
259 261 262 259 256 258 262 264 260 255 254 256 258 257 259 261 262 264 266 264 260 258 258 260 264 266 266 266 267 268 268 269 271 273 275 277 280 281 281 280 280 280 280 280 278 276 275 275 275 276 276 276 277 279 281 283 284 285 288 289 291 292 293 295 298 300 301 302 302 301 302 302 301 305 309 310 308 308 307 305 304 304 303 301 300
256 258 259 259 258 258 264 267 264 257 253 253 252 252 256 259 261 264 265 263 258 255 253 255 261 264 263 263 264 265 267 269 270 271 273 276 279 280 280 279 278 278 278 277 276 274 273 274 275 275 275 276 277 279 281 282 283 285 288 290 291 292 294 297 299 300 300 300 301 301 301 302 304 308 310 309 309 310 310 305 301 301 303 302 301
255 256 256 257 257 259 264 266 263 257 254 252 249 249 255 259 262 265 265 261 258 256 252 252 256 260 261 260 261 262 264 266 268 270 273 276 277 277 277 276 275 275 275 275 273 272 272 272 273 274 274 276 277 279 280 282 283 286 288 289 291 293 297 298 299 299 299 300 301 302 303 305 309 311 310 310 311 311 311 309 305 303 303 303 303
254 253 253 254 257 261 263 261 260 258 255 253 251 252 256 260 264 265 262 258 257 256 254 251 253 257 258 259 260 261 262 264 266 269 272 273 273 273 273 273 273 274 274 274 272 271 271 271 272 272 273 276 278 278 280 281 283 285 287 288 291 294 297 299 299 299 301 302 303 305 306 310 312 312 311 313 314 312 310 309 308 307 305 303 303
254 252 253 256 258 259 258 258 261 261 258 255 254 255 257 260 262 262 259 258 257 256 256 254 255 256 258 259 260 261 260 261 264 267 269 269 270 270 271 272 273 273 274 273 272 270 270 270 271 272 274 277 278 278 279 281 283 285 287 290 293 296 298 299 300 301 303 305 306 309 311 312 314 313 313 314 313 311 310 310 309 308 307 305 302
256 254 256 258 256 254 254 257 260 261 260 257 255 255 257 258 259 258 258 258 257 257 257 257 256 257 257 257 257 257 258 258 261 263 265 267 269 270 271 272 273 274 274 274 273 271 271 270 271 273 276 277 278 278 279 281 283 286 290 293 296 298 299 300 302 305 306 307 309 311 311 312 313 314 314 314 312 311 311 310 309 309 307 305 303
259 257 259 259 255 252 252 255 257 259 259 257 255 255 254 255 255 256 256 256 256 256 255 255 254 253 252 253 253 254 255 256 259 262 265 267 269 270 271 272 273 274 274 274 274 273 272 272 272 274 276 276 276 277 278 281 284 287 290 293 295 297 300 303 305 306 306 306 308 310 311 312 312 313 314 313 311 311 310 308 308 308 305 304 304
259 259 260 260 258 256 255 254 253 256 258 257 253 252 251 251 252 252 252 251 251 251 250 250 249 248 248 249 251 252 254 256 259 262 264 266 268 269 270 271 272 273 274 274 274 274 273 273 274 275 275 275 275 276 277 280 283 286 290 293 295 298 301 304 305 304 304 305 308 310 310 310 310 312 313 311 310 310 310 309 308 306 304 305 305
258 261 262 262 262 260 259 256 252 251 254 254 250 248 247 247 247 247 247 246 246 246 247 247 247 248 248 249 250 251 252 255 257 260 262 264 265 267 268 269 270 271 272 273 273 272 272 273 273 273 273 273 273 274 277 280 283 287 290 293 295 297 300 302 302 302 304 306 307 308 309 309 310 312 314 313 312 311 311 310 308 307 307 307 305
257 259 262 263 262 261 261 259 253 249 250 249 247 246 244 244 245 246 246 245 245 245 246 247 248 248 248 248 249 249 250 252 255 257 259 261 263 265 266 267 269 270 271 271 271 271 272 272 272 271 270 271 272 274 277 280 284 288 291 293 295 297 300 302 302 303 305 306 307 309 311 312 313 315 316 314 312 312 311 309 308 309 308 306 304
255 257 260 263 262 261 263 261 254 248 246 245 244 242 242 243 244 245 245 245 246 246 246 247 247 247 247 247 247 248 249 251 253 255 257 259 261 263 264 266 268 269 270 270 271 271 272 271 270 269 269 269 271 274 279 282 286 289 291 294 296 299 302 303 304 305 307 309 310 311 313 314 314 314 314 313 312 311 310 308 308 309 307 305 303
257 258 261 263 263 263 263 258 250 244 242 241 240 240 241 243 243 243 244 244 245 246 246 246 245 245 245 245 245 247 248 250 252 254 255 258 261 263 264 265 267 268 269 270 270 270 270 269 268 267 267 268 271 275 280 284 287 290 293 296 298 301 303 304 304 307 309 309 311 312 313 314 314 313 313 313 312 311 309 308 309 309 306 304 304
256 258 259 259 260 260 257 250 243 240 239 238 238 239 240 243 244 245 244 244 243 243 242 242 241 241 241 242 243 245 247 248 251 252 253 256 260 263 264 265 267 268 269 270 270 269 268 267 265 265 265 267 271 276 281 285 288 291 294 297 300 302 303 304 306 308 309 310 312 314 315 315 314 314 314 314 313 311 309 308 309 307 305 304 303
256 257 257 256 255 252 248 242 237 236 235 234 236 238 239 243 247 246 245 245 243 241 240 240 240 240 242 243 245 246 247 248 249 250 252 255 258 261 263 264 266 267 269 270 270 268 266 264 262 262 264 268 273 277 282 286 289 293 297 299 301 303 305 306 308 310 311 313 316 317 317 317 316 316 316 315 313 311 308 307 307 305 303 303 302
255 256 257 256 252 246 240 234 231 231 232 233 235 239 242 245 246 244 244 244 243 242 241 241 242 244 246 248 249 249 250 251 251 251 252 255 258 259 260 262 265 267 269 269 268 266 264 260 259 262 266 270 275 280 284 288 292 296 299 301 302 305 306 308 310 313 315 317 319 319 320 319 318 317 316 315 312 309 307 306 306 304 302 301 300
256 257 257 255 252 246 238 233 230 229 231 234 236 239 243 245 245 243 243 242 242 244 245 245 246 249 251 252 252 252 253 254 254 253 253 256 258 258 259 261 264 266 267 267 266 263 260 257 258 262 268 273 278 282 286 291 295 298 300 301 304 307 308 310 314 317 318 319 319 320 320 320 318 316 315 313 310 308 307 307 306 305 303 302 300
253 255 255 254 252 249 243 239 236 233 234 235 236 237 239 242 243 244 243 242 242 244 247 248 250 251 253 255 255 254 255 255 254 254 255 257 259 260 259 260 262 264 265 264 262 258 255 255 258 263 269 275 280 285 289 294 296 297 299 302 305 308 310 313 317 319 320 320 320 320 320 318 317 315 313 311 309 308 308 308 308 307 306 304 302
245 246 249 250 250 249 246 244 242 240 240 239 237 236 237 238 240 242 244 244 245 245 246 248 250 251 254 256 256 255 255 255 255 255 256 258 260 260 259 260 261 263 263 262 258 254 252 255 258 264 270 276 281 287 291 294 295 297 300 303 306 309 312 316 319 319 320 320 320 319 319 318 316 314 313 311 309 309 309 309 309 309 308 306 304
240 241 243 244 246 247 247 247 246 246 246 245 244 243 243 242 243 244 245 246 247 247 246 246 247 250 253 256 257 256 256 256 256 256 256 258 259 259 259 259 261 262 261 258 253 250 252 255 259 265 271 276 283 289 292 293 295 297 301 304 307 311 315 318 319 320 320 320 319 319 319 317 315 314 313 312 311 311 311 310 310 310 309 307 304
242 241 242 244 246 246 247 247 247 247 248 249 249 249 249 248 247 246 246 246 246 246 246 246 247 250 253 254 256 256 256 257 257 256 256 256 256 256 258 259 260 260 258 253 248 248 251 255 260 266 272 277 284 289 291 293 296 298 302 306 310 314 317 319 320 319 319 319 318 318 318 317 316 315 314 314 313 313 312 311 311 311 310 308 305
252 247 246 248 248 248 249 249 249 249 249 249 249 250 250 250 249 248 247 246 247 246 246 246 247 249 251 253 254 254 255 255 255 254 255 254 252 253 255 257 258 257 254 249 246 247 251 256 262 268 273 279 285 288 290 293 296 300 305 310 314 317 318 319 319 318 318 318 319 319 318 317 317 316 315 314 313 314 314 313 312 312 311 309 306
264 261 260 259 255 253 253 253 254 254 253 253 252 251 250 251 251 249 248 247 247 247 247 247 247 248 250 252 252 252 252 252 252 253 253 252 251 251 253 255 256 254 250 246 244 247 252 257 263 269 274 280 284 286 288 292 297 303 309 313 316 317 317 318 318 318 319 319 319 319 318 318 317 317 315 314 314 315 316 315 315 314 313 310 307
272 270 269 267 265 262 261 260 259 259 258 258 257 256 256 257 257 256 254 253 252 251 250 250 251 253 255 256 254 253 251 249 249 250 251 250 250 251 254 256 255 251 246 243 244 249 254 259 265 270 276 280 282 284 288 294 300 307 312 314 316 316 317 317 318 318 319 319 318 318 318 318 318 318 316 315 316 316 317 318 317 315 314 311 309
278 276 273 271 270 269 269 268 267 266 264 262 261 260 260 261 262 263 263 263 262 262 260 259 260 261 262 262 260 258 255 252 249 248 247 247 248 251 254 254 251 246 242 241 245 250 256 261 267 272 276 278 281 285 291 297 304 310 313 314 315 315 316 316 317 318 318 318 317 317 318 319 319 319 318 317 318 319 319 319 317 315 314 312 309
279 279 277 275 273 272 271 271 271 270 269 267 265 264 263 263 264 265 266 266 267 267 266 266 266 266 265 265 262 258 255 252 247 245 245 246 247 250 252 249 245 241 239 240 246 251 257 263 269 272 275 277 282 288 295 301 307 311 313 313 314 314 315 316 317 318 318 318 318 319 320 321 321 320 320 320 320 320 320 319 317 316 314 313 310
274 275 276 276 274 273 272 271 270 270 270 270 269 268 268 267 267 267 267 267 267 267 267 267 267 266 264 261 257 251 246 242 239 239 242 244 246 248 249 246 241 237 237 241 246 252 258 264 267 271 274 279 285 291 298 304 309 311 312 313 313 314 316 317 318 319 319 320 320 321 322 322 322 322 322 322 322 322 321 319 318 317 316 315 312
269 270 270 270 269 269 268 268 268 268 268 268 269 269 269 269 269 268 267 266 266 266 266 265 265 264 261 257 252 247 241 237 236 236 237 238 241 245 246 241 237 235 237 242 247 253 258 263 266 271 276 281 287 294 301 306 309 311 311 312 314 315 316 318 319 321 322 322 323 323 324 324 324 323 323 323 323 323 322 320 320 320 319 318 315
266 266 265 264 264 264 264 264 264 265 265 265 265 266 267 267 267 267 265 262 261 261 262 262 262 259 255 252 248 241 235 233 234 236 237 238 241 244 242 237 233 234 238 243 248 253 258 262 266 271 277 283 290 298 304 308 310 311 311 313 314 316 317 319 320 322 324 325 325 325 326 326 326 324 324 324 324 323 323 322 323 323 323 321 319
267 266 265 264 263 262 262 262 262 263 264 264 264 264 264 265 265 264 262 259 257 255 256 258 258 255 250 245 239 233 229 229 231 234 236 238 242 243 239 232 230 233 238 243 248 252 257 262 266 272 278 285 293 301 306 309 310 311 312 313 315 316 318 320 321 323 325 326 326 327 328 328 327 325 325 325 324 324 324 325 326 327 326 324 321
270 269 268 267 265 264 264 264 263 264 264 264 264 264 264 264 264 263 261 260 257 255 254 255 257 255 250 242 233 228 228 228 229 230 232 235 239 239 233 228 229 234 239 243 248 252 257 262 267 272 279 288 296 303 307 309 310 311 312 314 315 317 318 320 322 324 326 327 327 328 330 330 328 327 326 326 325 325 327 328 329 329 328 327 324
272 271 269 269 268 266 266 265 265 264 264 263 263 263 263 264 263 262 260 259 256 254 253 253 254 254 248 240 231 227 227 228 229 228 230 236 239 235 227 226 230 235 239 243 248 253 257 262 268 274 283 292 299 305 308 309 310 311 312 314 316 318 320 321 323 324 326 328 329 330 331 330 329 329 328 327 326 327 329 331 331 331 330 329 326
270 268 268 268 267 266 265 264 263 262 262 260 260 260 261 262 262 260 258 257 255 254 254 253 252 251 247 240 232 227 226 227 227 227 232 237 236 228 223 226 231 234 239 244 248 252 257 263 269 278 287 295 301 306 309 310 310 311 313 316 318 320 321 322 323 325 327 328 329 330 331 331 331 331 330 328 328 329 331 332 333 332 332 330 328
269 267 265 264 264 263 262 262 261 260 258 257 257 258 259 260 259 257 255 254 254 255 256 254 251 249 247 243 236 231 227 225 226 229 234 235 230 223 223 228 231 234 239 244 247 252 257 263 272 282 291 298 303 307 309 309 310 312 314 317 319 321 322 322 324 325 327 328 329 330 331 331 332 332 332 331 330 331 333 334 335 334 333 331 329
267 265 262 261 261 260 261 261 260 258 255 254 254 254 255 255 255 253 252 251 251 252 255 254 249 246 244 242 238 234 231 228 227 230 233 230 224 221 225 229 231 235 240 242 246 252 258 266 276 285 293 300 304 307 308 309 311 313 316 319 320 322 322 323 324 325 327 328 330 330 330 331 333 333 333 334 334 334 335 335 336 335 333 332 331
264 262 260 259 259 259 259 261 260 258 255 254 253 253 252 251 251 250 249 248 248 250 253 252 247 243 241 239 236 236 235 232 230 230 229 224 220 221 226 229 231 235 238 241 246 252 260 269 279 288 296 302 305 307 308 310 312 315 318 320 321 322 324 325 325 326 327 329 330 329 330 332 333 333 335 337 337 337 337 336 336 335 334 333 332
262 261 259 257 256 254 254 254 255 254 253 253 254 255 255 253 251 249 247 246 247 249 251 249 245 240 237 235 232 232 234 233 232 229 224 219 218 222 226 228 231 233 236 240 246 254 263 272 282 290 297 302 305 306 308 311 314 317 319 321 322 324 325 326 326 326 327 329 329 329 330 332 332 333 336 338 339 339 338 337 336 336 335 335 334
261 259 257 255 252 250 248 247 247 249 251 252 254 256 257 256 253 250 247 246 247 248 249 246 241 235 230 225 223 224 227 228 225 221 217 216 219 222 225 227 229 232 235 240 247 255 265 274 283 291 298 301 304 307 309 312 315 317 319 321 324 325 326 327 327 327 327 328 328 329 331 332 332 333 337 339 339 340 340 339 338 337 336 336 335
259 258 256 254 252 249 246 244 245 247 250 253 254 255 255 253 250 246 245 245 246 246 245 240 233 226 220 215 215 220 224 222 217 213 213 215 219 221 223 225 228 230 234 240 247 256 266 275 284 292 297 301 304 307 310 312 315 317 320 323 325 327 327 326 327 327 327 327 328 329 331 331 332 334 337 339 339 340 340 339 339 338 337 337 337
258 256 254 252 251 249 247 245 245 247 250 252 252 250 248 246 244 242 242 242 239 235 229 223 219 214 210 209 213 221 223 219 213 211 212 215 217 220 222 224 227 230 234 241 248 258 268 278 287 293 297 301 305 308 311 313 315 318 321 325 327 327 327 327 327 328 327 326 328 330 330 331 333 335 337 338 339 339 340 340 340 339 338 338 338
257 255 252 249 248 247 246 246 246 248 251 252 249 245 243 241 240 240 239 234 225 216 208 204 202 202 204 210 217 221 220 214 210 210 212 214 216 218 221 223 226 230 235 242 251 261 271 280 287 293 298 302 307 310 312 314 317 319 323 326 327 327 328 328 328 327 327 328 329 329 329 331 334 336 337 338 339 339 339 340 340 340 339 339 339
256 254 252 249 248 248 248 248 249 250 251 250 247 242 238 235 234 231 226 217 206 195 190 190 194 200 207 215 219 218 213 209 208 209 211 213 215 218 221 224 228 232 238 246 255 263 272 280 287 293 299 304 308 311 312 315 318 321 323 326 327 327 328 328 327 327 328 330 329 329 330 332 334 335 336 337 337 338 339 340 341 341 340 340 340
255 253 252 251 251 251 250 250 249 250 248 245 240 235 230 227 223 216 205 193 183 178 179 186 196 204 211 214 213 210 207 206 207 208 210 212 215 219 222 226 229 234 241 250 257 266 274 282 287 293 299 304 307 309 311 314 318 320 322 324 326 327 327 327 326 327 329 329 328 329 331 333 333 334 336 336 336 337 338 339 341 342 341 340 340
254 252 249 248 248 248 248 247 245 242 239 235 232 228 221 213 202 189 178 171 169 173 182 192 201 206 208 207 205 204 204 205 206 207 209 212 216 220 223 227 232 238 247 255 262 270 278 284 289 295 299 302 305 309 311 314 316 319 320 322 324 325 325 325 325 327 327 326 328 330 332 332 333 334 335 335 336 336 337 339 341 342 342 341 341
251 250 247 245 242 240 239 237 235 232 229 225 219 208 192 177 168 164 162 163 170 180 191 199 203 204 203 202 201 201 202 203 205 207 210 214 218 222 226 230 236 244 252 260 267 274 281 287 292 296 298 302 305 309 311 314 316 317 319 320 321 322 322 323 324 324 325 326 329 331 331 331 332 333 333 334 335 335 336 338 340 342 342 341 342
251 249 245 241 237 234 232 228 224 216 205 190 175 163 156 154 155 158 162 169 179 188 194 197 198 198 198 199 200 201 202 203 205 209 212 216 221 225 229 235 242 250 257 264 271 279 285 290 293 295 298 302 306 309 311 313 315 315 317 318 319 320 321 321 322 323 325 327 329 330 330 331 331 331 332 333 334 334 335 337 340 341 342 342 342
246 243 239 233 227 219 206 190 174 161 153 148 145 146 148 152 157 161 167 175 182 188 190 191 192 194 196 197 199 200 202 205 207 211 215 219 224 228 234 240 248 255 262 269 277 283 287 290 292 295 298 302 306 309 311 313 314 314 315 316 317 318 319 320 321 323 325 327 327 328 330 330 330 330 331 332 332 333 334 336 339 341 342 342 342
Height
3014 3014 3014 3014 3014 3014 3015 3014 3014 3014 3014 3014 3014 3015 3015 3014 3015 3015 3015 3016 3016 3016 3016 3016 3015 3015 3014 3014 3014 3014 3014 3014 3014 3013 3013 3012 3011 3010 3009 3010 3010 3011 3011 3010 3010 3010 3009 3008 3007 3006 3005 3004 3003 3001 3000 2999 2998 2998 2996 2996 2995 2994 2993 2991 2988 2987 2989 2991 2990 2983 2978 2975 2974 2972 2970 2967 2967 2965 2963 2961 2959 2956 2954 2952 2951
3009 3009 3009 3009 3009 3009 3009 3008 3008 3008 3008 3008 3008 3009 3009 3009 3009 3009 3010 3011 3011 3011 3011 3011 3011 3010 3009 3009 3009 3009 3009 3008 3008 3009 3009 3008 3007 3005 3005 3005 3005 3006 3006 3006 3005 3005 3004 3004 3002 3001 3000 2999 2998 2996 2996 2995 2994 2993 2992 2991 2991 2990 2988 2987 2984 2982 2982 2984 2985 2982 2975 2969 2968 2966 2962 2959 2957 2955 2954 2952 2950 2948 2946 2943 2942
3004 3003 3003 3003 3003 3003 3002 3001 3001 3001 3002 3002 3003 3003 3003 3003 3004 3004 3005 3005 3006 3006 3006 3006 3006 3005 3005 3004 3004 3003 3003 3003 3003 3004 3004 3003 3002 3001 3000 3000 3000 3001 3001 3001 3000 3000 2999 2999 2998 2997 2996 2994 2994 2992 2991 2990 2989 2988 2988 2987 2986 2985 2984 2982 2980 2977 2975 2975 2976 2976 2970 2963 2960 2960 2956 2953 2949 2945 2944 2944 2941 2938 2937 2935 2932
2998 2996 2996 2996 2996 2996 2995 2995 2996 2995 2996 2997 2997 2998 2998 2997 2998 2998 2999 2999 3000 3000 3000 3000 3000 3000 3000 2999 2999 2998 2998 2998 2998 2999 2999 2998 2997 2996 2995 2995 2995 2995 2996 2995 2995 2995 2994 2994 2993 2992 2991 2990 2989 2988 2986 2986 2985 2984 2983 2982 2981 2980 2978 2976 2974 2972 2968 2967 2967 2968 2964 2956 2952 2951 2949 2946 2942 2939 2936 2935 2933 2930 2928 2926 2923
2992 2990 2989 2989 2988 2989 2989 2990 2990 2990 2991 2991 2992 2992 2992 2991 2991 2992 2992 2992 2993 2993 2993 2994 2994 2995 2995 2994 2994 2993 2992 2993 2993 2993 2993 2992 2992 2991 2991 2991 2991 2990 2990 2990 2990 2990 2989 2988 2988 2987 2986 2985 2984 2983 2982 2981 2980 2979 2978 2976 2975 2974 2972 2971 2969 2967 2963 2960 2959 2959 2958 2953 2947 2945 2943 2937 2933 2931 2929 2926 2924 2921 2920 2919 2916
2985 2984 2983 2983 2982 2982 2982 2983 2984 2984 2985 2985 2986 2986 2985 2984 2985 2985 2986 2986 2986 2986 2986 2988 2988 2989 2989 2989 2988 2988 2987 2987 2988 2988 2987 2987 2987 2987 2987 2987 2986 2985 2985 2985 2984 2984 2984 2983 2982 2982 2981 2980 2979 2978 2977 2976 2975 2974 2972 2971 2969 2968 2966 2965 2963 2961 2959 2956 2953 2951 2951 2948 2943 2940 2938 2931 2923 2919 2918 2917 2916 2913 2911 2911 2910
2977 2977 2977 2976 2976 2975 2975 2976 2977 2977 2978 2978 2978 2978 2977 2977 2978 2978 2978 2978 2978 2978 2979 2981 2982 2983 2983 2982 2982 2982 2982 2982 2982 2982 2981 2981 2982 2982 2982 2982 2981 2980 2980 2979 2979 2979 2979 2978 2977 2976 2976 2975 2974 2973 2972 2971 2970 2969 2967 2965 2964 2962 2960 2959 2957 2955 2953 2951 2948 2945 2943 2941 2938 2933 2929 2924 2917 2910 2906 2905 2906 2905 2901 2900 2899
2969 2970 2970 2969 2969 2969 2970 2970 2969 2970 2970 2970 2969 2969 2970 2970 2970 2971 2971 2970 2971 2971 2973 2974 2975 2976 2976 2976 2976 2976 2976 2976 2976 2976 2976 2976 2976 2976 2976 2976 2976 2975 2974 2974 2974 2974 2974 2973 2972 2971 2971 2970 2969 2968 2967 2966 2964 2963 2962 2960 2958 2956 2954 2952 2951 2950 2947 2944 2941 2938 2934 2932 2930 2925 2920 2914 2909 2904 2898 2894 2893 2894 2891 2889 2888
2962 2962 2962 2961 2962 2963 2963 2962 2962 2962 2962 2962 2962 2963 2963 2963 2963 2963 2963 2963 2964 2965 2966 2967 2968 2968 2969 2969 2969 2970 2970 2970 2970 2970 2970 2971 2970 2970 2970 2970 2969 2969 2969 2968 2969 2968 2968 2968 2967 2966 2966 2965 2964 2963 2962 2961 2959 2958 2957 2955 2953 2951 2949 2947 2945 2943 2940 2936 2933 2929 2925 2922 2919 2914 2909 2905 2899 2894 2890 2886 2883 2882 2879 2877 2880
2955 2955 2954 2955 2956 2956 2956 2955 2956 2956 2955 2956 2956 2956 2956 2957 2957 2956 2956 2957 2957 2958 2959 2960 2960 2961 2962 2962 2963 2964 2964 2964 2964 2964 2964 2964 2964 2964 2964 2964 2963 2963 2963 2963 2963 2963 2963 2962 2962 2961 2961 2960 2959 2958 2957 2955 2953 2952 2951 2949 2947 2945 2943 2941 2938 2935 2931 2927 2923 2918 2913 2910 2908 2903 2898 2895 2891 2886 2882 2877 2873 2871 2867 2863 2866
2948 2948 2948 2949 2949 2948 2948 2948 2949 2948 2948 2949 2949 2949 2950 2950 2950 2950 2950 2950 2951 2951 2952 2953 2953 2954 2955 2956 2956 2957 2957 2958 2958 2958 2957 2957 2958 2958 2958 2958 2957 2957 2957 2957 2957 2957 2957 2957 2956 2956 2956 2955 2954 2953 2951 2950 2948 2947 2945 2943 2940 2938 2935 2933 2930 2926 2921 2916 2913 2909 2903 2900 2899 2895 2889 2885 2882 2879 2874 2869 2863 2860 2857 2851 2849
2941 2942 2942 2942 2941 2941 2941 2942 2942 2941 2942 2942 2942 2943 2943 2943 2943 2944 2944 2944 2945 2945 2945 2946 2947 2947 2948 2949 2950 2950 2951 2952 2951 2951 2952 2952 2952 2952 2952 2951 2951 2951 2951 2951 2951 2952 2952 2951 2951 2951 2950 2949 2948 2947 2946 2944 2943 2941 2940 2938 2935 2933 2929 2926 2922 2918 2913 2909 2906 2903 2898 2893 2890 2888 2884 2877 2873 2871 2867 2863 2859 2853 2849 2844 2838
2934 2934 2935 2935 2934 2935 2935 2935 2935 2935 2935 2936 2936 2936 2936 2936 2937 2938 2938 2938 2939 2939 2939 2940 2940 2941 2942 2942 2943 2945 2945 2946 2945 2945 2946 2946 2946 2945 2945 2945 2945 2945 2945 2946 2946 2946 2946 2945 2945 2945 2945 2943 2942 2941 2940 2939 2938 2936 2934 2932 2930 2928 2925 2921 2918 2913 2907 2902 2899 2896 2893 2888 2883 2882 2880 2872 2865 2862 2858 2854 2851 2845 2839 2838 2832
2926 2927 2927 2927 2927 2928 2929 2929 2929 2929 2929 2929 2929 2929 2930 2930 2931 2932 2932 2932 2933 2933 2934 2935 2935 2936 2936 2937 2938 2939 2939 2939 2939 2939 2939 2939 2939 2939 2939 2939 2939 2939 2939 2940 2940 2940 2940 2940 2939 2939 2939 2938 2937 2935 2934 2933 2931 2930 2928 2926 2924 2922 2920 2917 2913 2908 2903 2898 2894 2891 2888 2883 2876 2873 2872 2866 2858 2853 2849 2844 2841 2836 2830 2829 2825
2919 2919 2920 2920 2921 2922 2922 2922 2922 2922 2923 2923 2923 2923 2924 2925 2925 2926 2926 2927 2927 2928 2928 2929 2929 2930 2931 2931 2931 2932 2932 2932 2932 2932 2932 2932 2933 2932 2932 2932 2932 2933 2933 2933 2934 2934 2934 2934 2934 2934 2933 2932 2932 2930 2928 2927 2925 2923 2922 2920 2918 2916 2913 2910 2906 2901 2897 2893 2888 2884 2881 2875 2869 2864 2862 2859 2852 2847 2843 2838 2834 2829 2823 2820 2817
2912 2913 2913 2914 2915 2916 2916 2915 2915 2916 2916 2917 2917 2918 2918 2919 2919 2919 2920 2920 2921 2921 2922 2923 2923 2924 2925 2925 2925 2925 2926 2925 2925 2925 2926 2926 2926 2926 2926 2926 2927 2927 2927 2927 2928 2929 2929 2929 2928 2928 2927 2927 2926 2925 2923 2920 2919 2917 2915 2913 2910 2908 2906 2902 2898 2894 2890 2886 2881 2877 2873 2869 2865 2861 2857 2854 2849 2843 2837 2832 2830 2826 2817 2811 2809
2906 2907 2907 2908 2909 2909 2909 2909 2909 2910 2910 2911 2911 2912 2912 2913 2913 2913 2913 2913 2914 2915 2916 2917 2917 2918 2918 2918 2918 2919 2919 2918 2918 2919 2919 2919 2919 2920 2920 2921 2921 2922 2922 2922 2923 2923 2923 2923 2923 2922 2921 2921 2920 2919 2917 2914 2912 2910 2908 2906 2903 2901 2899 2895 2892 2888 2884 2880 2876 2872 2868 2865 2861 2857 2853 2849 2844 2838 2831 2825 2824 2820 2811 2804 2800
2899 2900 2900 2901 2901 2902 2902 2902 2903 2904 2904 2905 2905 2906 2906 2906 2907 2907 2907 2907 2908 2908 2909 2910 2910 2911 2912 2911 2911 2911 2912 2912 2912 2912 2913 2912 2913 2914 2915 2916 2916 2916 2916 2917 2917 2917 2917 2917 2917 2916 2915 2915 2914 2913 2911 2908 2907 2904 2902 2899 2897 2894 2891 2888 2885 2882 2878 2875 2871 2867 2863 2859 2855 2850 2846 2841 2838 2833 2825 2819 2817 2813 2805 2800 2795
2893 2893 2893 2893 2894 2894 2895 2896 2897 2897 2898 2899 2899 2899 2899 2900 2900 2901 2901 2901 2901 2901 2902 2903 2903 2904 2905 2904 2904 2904 2905 2905 2905 2906 2906 2906 2907 2908 2909 2909 2910 2910 2911 2911 2911 2911 2911 2911 2911 2910 2909 2909 2908 2907 2905 2902 2900 2898 2895 2893 2890 2887 2884 2881 2878 2875 2870 2867 2863 2859 2856 2852 2847 2842 2838 2834 2830 2826 2820 2815 2811 2806 2799 2795 2791
2886 2886 2887 2887 2887 2887 2888 2888 2889 2890 2891 2892 2892 2892 2892 2894 2894 2895 2895 2895 2896 2896 2896 2896 2896 2897 2898 2898 2898 2898 2898 2898 2899 2900 2900 2900 2901 2902 2903 2903 2904 2905 2905 2905 2904 2904 2905 2905 2905 2904 2904 2903 2902 2900 2898 2896 2893 2891 2889 2886 2883 2880 2877 2874 2871 2867 2862 2858 2854 2851 2847 2843 2838 2833 2830 2827 2823 2819 2815 2810 2805 2800 2793 2788 2785
2880 2880 2880 2881 2881 2881 2882 2882 2882 2883 2884 2884 2885 2885 2886 2887 2888 2889 2889 2889 2890 2890 2890 2890 2891 2891 2892 2892 2891 2891 2892 2892 2893 2894 2894 2894 2895 2896 2896 2898 2899 2899 2898 2898 2898 2899 2899 2899 2899 2899 2898 2897 2896 2894 2892 2890 2887 2885 2883 2880 2877 2874 2870 2866 2863 2859 2855 2851 2847 2843 2840 2836 2831 2827 2824 2820 2816 2812 2808 2803 2798 2793 2787 2780 2777
2874 2874 2874 2874 2875 2875 2876 2876 2876 2876 2877 2877 2878 2879 2880 2880 2881 2882 2882 2882 2883 2883 2884 2884 2884 2885 2885 2885 2885 2885 2886 2886 2887 2887 2887 2887 2887 2889 2890 2891 2892 2892 2892 2892 2893 2893 2893 2893 2893 2893 2892 2891 2890 2888 2886 2884 2882 2880 2877 2874 2871 2868 2864 2860 2855 2852 2848 2845 2840 2837 2834 2830 2826 2822 2818 2814 2810 2805 2800 2796 2791 2785 2780 2775 2769
2866 2867 2867 2867 2868 2869 2869 2870 2870 2870 2870 2871 2871 2872 2872 2873 2874 2874 2875 2875 2875 2876 2876 2877 2877 2878 2879 2879 2880 2880 2880 2880 2880 2879 2879 2879 2880 2882 2883 2884 2885 2885 2886 2887 2887 2887 2887 2887 2886 2886 2886 2885 2885 2883 2881 2879 2877 2874 2871 2869 2866 2862 2858 2854 2849 2845 2842 2838 2834 2830 2827 2823 2818 2815 2812 2808 2804 2799 2793 2788 2783 2778 2773 2769 2763
2858 2859 2860 2861 2862 2863 2863 2864 2864 2865 2865 2865 2866 2866 2866 2866 2867 2867 2867 2868 2868 2868 2869 2869 2870 2871 2872 2873 2873 2874 2874 2874 2874 2873 2872 2873 2873 2874 2876 2877 2878 2879 2880 2881 2882 2882 2881 2881 2880 2880 2879 2879 2879 2878 2877 2874 2872 2869 2866 2863 2861 2857 2852 2848 2843 2839 2835 2832 2828 2824 2821 2816 2812 2808 2804 2800 2796 2792 2787 2781 2776 2771 2766 2761 2757
2851 2851 2852 2854 2855 2856 2857 2857 2858 2858 2858 2858 2859 2860 2860 2860 2860 2860 2860 2860 2860 2861 2861 2862 2863 2864 2865 2866 2867 2867 2867 2867 2868 2867 2867 2867 2867 2867 2869 2870 2871 2872 2873 2875 2876 2876 2876 2875 2875 2874 2873 2873 2873 2873 2871 2869 2866 2863 2860 2857 2854 2850 2846 2842 2838 2834 2830 2827 2822 2818 2815 2811 2806 2802 2797 2792 2788 2784 2779 2774 2770 2765 2759 2753 2749
2843 2844 2845 2846 2847 2848 2849 2849 2850 2850 2851 2851 2851 2852 2852 2853 2853 2853 2853 2853 2853 2854 2854 2855 2856 2857 2858 2859 2860 2861 2861 2860 2860 2861 2861 2861 2861 2861 2862 2863 2864 2865 2867 2869 2870 2870 2870 2870 2869 2868 2867 2867 2867 2867 2866 2864 2861 2858 2854 2851 2847 2844 2840 2837 2833 2829 2825 2821 2816 2812 2809 2805 2800 2796 2790 2785 2782 2777 2772 2767 2762 2758 2752 2745 2739
2837 2837 2837 2838 2839 2840 2841 2841 2842 2843 2843 2843 2843 2844 2844 2845 2845 2845 2846 2846 2847 2847 2847 2848 2848 2849 2851 2852 2853 2853 2853 2853 2853 2854 2854 2854 2854 2855 2856 2857 2858 2859 2861 2863 2864 2865 2865 2864 2864 2863 2862 2861 2860 2860 2859 2858 2855 2852 2848 2845 2841 2838 2835 2831 2828 2824 2819 2815 2811 2807 2803 2799 2794 2790 2785 2780 2776 2772 2766 2760 2754 2750 2744 2737 2729
2829 2829 2830 2830 2830 2831 2832 2833 2834 2835 2835 2835 2836 2836 2836 2837 2838 2839 2839 2840 2840 2840 2840 2840 2841 2842 2844 2844 2845 2845 2845 2845 2846 2847 2848 2848 2849 2850 2850 2851 2852 2854 2855 2858 2859 2860 2860 2860 2859 2858 2856 2855 2855 2854 2853 2851 2849 2846 2843 2840 2836 2833 2830 2827 2823 2819 2814 2810 2806 2802 2798 2794 2789 2784 2779 2775 2770 2765 2760 2754 2748 2742 2737 2729 2721
2819 2820 2821 2822 2823 2823 2824 2824 2825 2826 2827 2827 2828 2828 2828 2829 2830 2831 2832 2833 2833 2833 2834 2834 2835 2837 2837 2837 2838 2838 2838 2839 2841 2842 2843 2844 2845 2845 2845 2846 2847 2848 2850 2852 2853 2854 2855 2855 2854 2853 2852 2850 2849 2847 2846 2844 2843 2840 2838 2835 2831 2829 2826 2822 2818 2815 2810 2806 2802 2797 2792 2788 2783 2779 2773 2768 2764 2759 2753 2748 2742 2735 2729 2722 2715
2809 2810 2811 2813 2814 2814 2814 2815 2816 2816 2817 2818 2818 2819 2820 2821 2822 2823 2824 2825 2826 2826 2826 2827 2828 2829 2830 2830 2831 2831 2831 2834 2836 2837 2838 2838 2839 2839 2840 2840 2840 2842 2844 2846 2848 2849 2850 2850 2850 2849 2848 2846 2843 2841 2840 2838 2837 2835 2833 2830 2827 2824 2821 2818 2814 2810 2806 2801 2796 2791 2786 2782 2777 2773 2767 2761 2757 2753 2748 2742 2736 2729 2723 2716 2708
2800 2800 2801 2802 2803 2804 2804 2805 2806 2806 2807 2808 2808 2809 2810 2811 2812 2814 2815 2816 2817 2817 2817 2818 2818 2819 2820 2821 2822 2823 2823 2825 2826 2828 2830 2832 2832 2833 2834 2835 2835 2837 2839 2841 2842 2843 2845 2845 2845 2844 2843 2841 2838 2836 2834 2833 2831 2830 2828 2825 2822 2819 2816 2812 2809 2805 2801 2796 2791 2785 2781 2776 2771 2766 2760 2755 2750 2746 2742 2736 2730 2724 2717 2710 2703
2790 2791 2792 2792 2793 2793 2793 2794 2795 2796 2797 2797 2798 2799 2800 2800 2801 2803 2804 2806 2808 2808 2808 2809 2810 2810 2811 2812 2813 2814 2815 2816 2817 2819 2822 2823 2825 2827 2829 2829 2830 2832 2834 2836 2837 2838 2839 2840 2840 2839 2838 2836 2833 2831 2829 2827 2826 2824 2822 2820 2817 2814 2811 2807 2803 2799 2794 2790 2785 2780 2775 2771 2765 2760 2755 2750 2745 2740 2735 2730 2723 2717 2710 2704 2697
2780 2781 2782 2783 2783 2783 2783 2783 2784 2785 2786 2787 2788 2789 2790 2790 2791 2792 2794 2795 2797 2798 2799 2801 2801 2801 2802 2803 2804 2805 2806 2807 2809 2811 2814 2816 2819 2822 2823 2824 2825 2827 2829 2830 2832 2833 2834 2835 2835 2834 2833 2831 2828 2826 2824 2822 2820 2818 2816 2813 2811 2808 2805 2802 2798 2794 2789 2784 2780 2775 2770 2765 2760 2755 2750 2746 2740 2734 2729 2723 2717 2710 2703 2696 2690
2771 2772 2772 2773 2773 2774 2774 2774 2774 2775 2776 2777 2778 2779 2780 2781 2782 2783 2784 2785 2786 2788 2790 2792 2792 2793 2795 2796 2797 2798 2798 2800 2802 2804 2808 2812 2815 2816 2817 2819 2821 2822 2824 2826 2827 2828 2829 2830 2829 2829 2827 2825 2823 2821 2819 2817 2815 2813 2810 2808 2805 2803 2800 2797 2793 2789 2785 2780 2776 2771 2766 2761 2755 2750 2745 2741 2736 2730 2724 2717 2711 2704 2697 2690 2683
2761 2762 2763 2764 2764 2764 2765 2765 2765 2766 2767 2768 2769 2770 2771 2773 2773 2774 2775 2776 2777 2779 2781 2782 2784 2786 2788 2789 2790 2792 2793 2794 2796 2800 2803 2807 2809 2811 2812 2814 2816 2818 2820 2821 2822 2823 2824 2824 2824 2824 2822 2820 2818 2816 2814 2812 2809 2807 2805 2803 2800 2798 2794 2791 2788 2784 2780 2776 2771 2766 2761 2757 2752 2746 2740 2735 2730 2724 2718 2712 2705 2698 2692 2684 2677
2752 2753 2754 2755 2755 2755 2756 2756 2757 2757 2758 2759 2760 2762 2763 2764 2765 2766 2767 2768 2769 2770 2771 2773 2775 2778 2780 2782 2784 2786 2788 2791 2794 2797 2800 2802 2805 2807 2808 2810 2812 2814 2816 2817 2818 2819 2819 2819 2819 2819 2817 2815 2813 2810 2808 2806 2804 2802 2800 2798 2795 2792 2789 2786 2782 2778 2774 2770 2766 2762 2757 2752 2747 2742 2736 2730 2725 2719 2713 2707 2700 2693 2687 2679 2671
2743 2744 2745 2746 2746 2746 2747 2747 2748 2748 2749 2750 2752 2753 2754 2755 2756 2757 2758 2759 2761 2762 2763 2765 2767 2769 2771 2774 2776 2779 2783 2787 2791 2795 2797 2799 2801 2803 2804 2806 2808 2810 2812 2813 2814 2814 2814 2815 2815 2814 2812 2810 2808 2805 2803 2801 2799 2798 2796 2793 2790 2787 2784 2780 2777 2773 2769 2765 2761 2757 2752 2748 2743 2738 2732 2726 2719 2713 2708 2702 2695 2688 2682 2675 2667
2733 2735 2736 2737 2737 2737 2738 2738 2739 2739 2740 2741 2743 2745 2746 2747 2748 2749 2750 2751 2753 2754 2756 2757 2759 2761 2763 2766 2769 2772 2777 2782 2787 2791 2794 2796 2798 2799 2801 2803 2805 2806 2807 2809 2809 2810 2810 2810 2810 2809 2807 2805 2803 2800 2798 2797 2795 2793 2791 2788 2785 2782 2779 2776 2772 2768 2764 2761 2757 2752 2748 2744 2739 2733 2728 2721 2714 2708 2702 2696 2689 2682 2675 2669 2662
2724 2726 2727 2728 2728 2729 2730 2730 2730 2731 2732 2733 2735 2736 2738 2739 2739 2740 2741 2743 2744 2746 2748 2749 2751 2753 2756 2758 2762 2767 2773 2780 2785 2789 2791 2793 2794 2796 2798 2800 2801 2802 2803 2804 2805 2805 2806 2805 2805 2804 2802 2800 2797 2796 2794 2792 2791 2788 2786 2783 2781 2778 2775 2771 2768 2764 2760 2756 2752 2748 2744 2739 2734 2729 2723 2717 2710 2704 2697 2691 2685 2678 2670 2663 2656
2715 2716 2717 2718 2719 2720 2721 2722 2722 2723 2724 2725 2727 2728 2729 2730 2731 2731 2733 2734 2736 2738 2740 2741 2743 2746 2749 2753 2759 2766 2773 2779 2782 2785 2787 2789 2791 2793 2795 2796 2797 2798 2799 2800 2801 2801 2801 2801 2800 2799 2797 2794 2793 2791 2789 2788 2786 2783 2781 2779 2776 2773 2770 2766 2762 2759 2755 2751 2747 2743 2739 2734 2729 2725 2719 2712 2706 2700 2694 2687 2681 2674 2667 2659 2651
2706 2707 2708 2709 2710 2711 2712 2713 2715 2716 2717 2718 2719 2720 2721 2722 2723 2724 2725 2727 2728 2730 2732 2734 2737 2742 2746 2752 2759 2766 2772 2776 2778 2780 2783 2786 2788 2790 2791 2792 2794 2794 2795 2796 2796 2796 2796 2796 2795 2793 2791 2790 2788 2786 2784 2783 2781 2779 2777 2775 2772 2769 2765 2761 2758 2754 2750 2747 2743 2739 2735 2730 2725 2720 2714 2708 2702 2696 2690 2684 2677 2670 2663 2656 2648
2697 2697 2699 2700 2701 2703 2705 2706 2708 2709 2709 2710 2711 2713 2714 2715 2716 2717 2718 2720 2721 2723 2726 2729 2734 2739 2744 2751 2758 2764 2768 2770 2773 2776 2779 2781 2783 2785 2787 2788 2790 2790 2791 2792 2792 2792 2792 2791 2790 2788 2787 2785 2783 2782 2780 2778 2776 2775 2773 2771 2767 2764 2760 2757 2754 2750 2746 2742 2739 2735 2730 2726 2721 2715 2710 2704 2698 2692 2686 2680 2673 2666 2659 2652 2644
2688 2689 2690 2692 2693 2695 2697 2699 2700 2701 2702 2703 2704 2706 2707 2708 2709 2710 2712 2714 2716 2718 2722 2726 2731 2736 2742 2748 2754 2759 2762 2765 2768 2772 2775 2777 2779 2781 2783 2784 2786 2786 2787 2787 2787 2787 2787 2786 2785 2783 2782 2780 2779 2777 2776 2774 2772 2771 2769 2766 2763 2759 2756 2753 2750 2746 2742 2738 2734 2730 2726 2721 2717 2711 2705 2700 2694 2688 2682 2676 2669 2663 2656 2648 2641
2680 2681 2683 2684 2686 2687 2689 2691 2692 2693 2695 2696 2697 2699 2700 2701 2703 2704 2706 2708 2711 2714 2718 2723 2728 2733 2738 2745 2751 2755 2758 2762 2765 2768 2771 2773 2776 2778 2779 2781 2782 2783 2783 2783 2783 2783 2782 2781 2780 2779 2777 2776 2775 2773 2771 2770 2768 2766 2764 2761 2758 2755 2752 2749 2745 2741 2738 2734 2729 2725 2721 2717 2712 2707 2701 2696 2690 2684 2678 2672 2665 2659 2652 2645 2637
2672 2674 2675 2677 2678 2680 2682 2684 2685 2687 2688 2690 2691 2692 2694 2695 2697 2699 2701 2703 2706 2710 2715 2720 2724 2730 2737 2744 2749 2752 2756 2759 2762 2765 2767 2770 2772 2774 2776 2777 2778 2779 2779 2779 2779 2779 2778 2777 2775 2774 2773 2772 2770 2769 2767 2766 2764 2761 2758 2756 2753 2751 2748 2744 2740 2737 2733 2729 2725 2720 2716 2712 2707 2702 2697 2692 2687 2680 2674 2668 2662 2655 2649 2641 2634
2666 2667 2669 2670 2672 2674 2675 2677 2679 2681 2683 2684 2685 2687 2688 2689 2691 2694 2696 2699 2703 2708 2713 2718 2723 2730 2737 2743 2747 2750 2753 2756 2759 2762 2764 2767 2769 2771 2772 2774 2774 2775 2775 2775 2775 2774 2774 2772 2771 2770 2769 2767 2766 2765 2763 2762 2760 2757 2754 2752 2749 2746 2743 2740 2737 2733 2729 2725 2721 2717 2712 2708 2704 2699 2694 2689 2684 2678 2672 2666 2660 2653 2646 2639 2632
2661 2662 2663 2665 2666 2668 2670 2671 2673 2675 2677 2678 2680 2681 2683 2685 2687 2690 2693 2697 2702 2707 2712 2718 2725 2732 2737 2741 2745 2748 2751 2754 2757 2759 2762 2764 2766 2768 2769 2770 2770 2770 2771 2771 2771 2770 2769 2768 2767 2766 2765 2764 2763 2762 2760 2758 2756 2753 2751 2748 2746 2743 2740 2737 2734 2730 2726 2723 2718 2714 2709 2704 2700 2696 2691 2686 2681 2675 2669 2664 2658 2652 2645 2638 2630
2656 2657 2659 2660 2662 2663 2665 2666 2668 2669 2671 2673 2674 2676 2678 2681 2685 2688 2693 2697 2702 2707 2712 2719 2726 2732 2736 2740 2743 2746 2749 2752 2755 2757 2759 2761 2763 2765 2765 2766 2766 2766 2766 2766 2766 2766 2765 2764 2763 2762 2761 2760 2760 2758 2756 2754 2752 2750 2748 2745 2742 2740 2737 2734 2731 2727 2724 2720 2716 2710 2706 2702 2697 2692 2688 2683 2678 2672 2667 2661 2655 2649 2643 2636 2629
2652 2653 2654 2655 2656 2658 2659 2661 2662 2664 2666 2668 2671 2674 2677 2681 2685 2690 2694 2698 2703 2709 2715 2722 2727 2731 2735 2738 2742 2745 2748 2750 2753 2755 2757 2759 2760 2761 2761 2762 2762 2762 2762 2762 2762 2761 2760 2759 2758 2758 2757 2756 2755 2754 2752 2750 2748 2746 2744 2742 2739 2737 2734 2731 2728 2724 2720 2716 2712 2708 2703 2699 2695 2690 2686 2681 2676 2670 2665 2659 2653 2647 2641 2634 2628
2647 2648 2649 2651 2652 2653 2655 2657 2659 2661 2664 2667 2671 2675 2679 2683 2688 2692 2696 2700 2706 2712 2718 2723 2727 2731 2735 2738 2741 2744 2746 2749 2751 2752 2754 2756 2756 2757 2758 2758 2758 2758 2758 2758 2757 2757 2756 2755 2754 2754 2753 2752 2751 2750 2748 2746 2744 2742 2740 2738 2736 2734 2731 2728 2724 2721 2717 2712 2709 2705 2701 2697 2692 2688 2683 2679 2673 2668 2663 2657 2652 2646 2639 2633 2626
2643 2644 2646 2648 2649 2651 2653 2656 2659 2662 2666 2670 2674 2678 2683 2687 2691 2694 2698 2703 2709 2715 2719 2723 2727 2731 2734 2737 2740 2743 2745 2747 2748 2750 2751 2752 2753 2754 2754 2754 2755 2755 2754 2754 2753 2752 2752 2751 2751 2750 2749 2748 2747 2745 2744 2742 2740 2738 2736 2734 2732 2730 2727 2724 2721 2717 2713 2709 2706 2702 2698 2694 2690 2685 2681 2676 2671 2666 2661 2656 2650 2645 2639 2632 2625